QPF
0.04 0.03 0.03 0.03 0.03 0.03 0.03 0.03 0.03 0.02 0.02 0.02 0.04 0.07 0.12 0.11 0.12 0.11 0.12 0.15 0.13 0.10 0.10 0.09 0.10 0.10 0.09 0.09 0.10 0.10 0.10 0.09 0.08 0.07 0.06 0.06 0.06 0.05 0.05 0.04 0.04 0.04 0.03
0.04 0.05 0.06 0.06 0.05 0.05 0.05 0.05 0.05 0.04 0.02 0.01 0.02 0.04 0.08 0.12 0.14 0.16 0.15 0.15 0.20 0.13 0.10 0.09 0.09 0.10 0.09 0.09 0.10 0.09 0.09 0.11 0.12 0.10 0.07 0.07 0.07 0.06 0.05 0.05 0.05 0.04 0.04
0.06 0.07 0.08 0.08 0.09 0.09 0.08 0.07 0.06 0.05 0.03 0.02 0.01 0.02 0.03 0.05 0.07 0.11 0.14 0.10 0.07 0.07 0.07 0.07 0.07 0.08 0.09 0.10 0.11 0.10 0.09 0.09 0.09 0.09 0.09 0.09 0.09 0.07 0.06 0.06 0.06 0.05 0.04
0.08 0.10 0.10 0.08 0.07 0.08 0.08 0.06 0.05 0.03 0.03 0.03 0.03 0.03 0.03 0.04 0.07 0.12 0.13 0.09 0.06 0.04 0.05 0.06 0.08 0.08 0.09 0.10 0.11 0.11 0.10 0.09 0.08 0.07 0.08 0.09 0.08 0.07 0.07 0.06 0.06 0.05 0.05
0.07 0.09 0.11 0.10 0.09 0.08 0.07 0.05 0.05 0.03 0.04 0.04 0.03 0.04 0.04 0.03 0.06 0.10 0.12 0.10 0.07 0.06 0.06 0.07 0.08 0.09 0.09 0.10 0.10 0.12 0.11 0.10 0.09 0.08 0.10 0.09 0.08 0.07 0.08 0.07 0.07 0.06 0.05
0.05 0.05 0.05 0.05 0.05 0.05 0.04 0.04 0.03 0.04 0.04 0.03 0.03 0.03 0.02 0.02 0.04 0.07 0.08 0.08 0.06 0.07 0.10 0.11 0.11 0.11 0.10 0.10 0.10 0.12 0.12 0.11 0.09 0.08 0.10 0.12 0.10 0.10 0.10 0.11 0.10 0.08 0.06
0.04 0.04 0.04 0.04 0.04 0.05 0.04 0.04 0.04 0.04 0.03 0.03 0.03 0.02 0.02 0.02 0.03 0.05 0.06 0.06 0.07 0.09 0.10 0.14 0.14 0.11 0.09 0.09 0.08 0.10 0.14 0.14 0.12 0.09 0.09 0.12 0.13 0.10 0.08 0.09 0.10 0.10 0.08
0.04 0.04 0.04 0.04 0.05 0.06 0.07 0.07 0.06 0.04 0.02 0.03 0.03 0.03 0.02 0.02 0.03 0.03 0.05 0.06 0.07 0.10 0.11 0.10 0.08 0.07 0.07 0.07 0.07 0.09 0.11 0.12 0.12 0.10 0.09 0.09 0.10 0.11 0.08 0.08 0.08 0.09 0.09
0.04 0.03 0.03 0.03 0.03 0.04 0.05 0.05 0.05 0.05 0.04 0.04 0.05 0.05 0.05 0.04 0.04 0.03 0.05 0.06 0.08 0.09 0.11 0.11 0.08 0.06 0.06 0.07 0.09 0.09 0.09 0.10 0.11 0.10 0.09 0.08 0.08 0.09 0.08 0.08 0.08 0.09 0.10
0.04 0.04 0.03 0.02 0.02 0.02 0.04 0.05 0.03 0.03 0.04 0.04 0.04 0.04 0.05 0.05 0.05 0.06 0.05 0.07 0.07 0.09 0.10 0.09 0.09 0.11 0.10 0.13 0.13 0.07 0.06 0.06 0.07 0.09 0.09 0.08 0.07 0.07 0.07 0.07 0.08 0.09 0.09
0.02 0.02 0.02 0.02 0.01 0.02 0.04 0.07 0.03 0.02 0.03 0.04 0.04 0.05 0.06 0.05 0.04 0.06 0.08 0.06 0.05 0.07 0.07 0.06 0.06 0.06 0.06 0.06 0.08 0.06 0.05 0.04 0.04 0.04 0.06 0.06 0.06 0.07 0.06 0.06 0.06 0.07 0.07
0.01 0.01 0.01 0.02 0.02 0.02 0.02 0.04 0.04 0.02 0.02 0.03 0.04 0.04 0.04 0.04 0.04 0.04 0.07 0.06 0.05 0.06 0.06 0.05 0.04 0.04 0.04 0.04 0.05 0.06 0.05 0.04 0.04 0.04 0.04 0.04 0.04 0.05 0.06 0.05 0.03 0.04 0.05
0.01 0.01 0.01 0.01 0.01 0.02 0.03 0.04 0.05 0.03 0.02 0.02 0.02 0.02 0.02 0.02 0.04 0.05 0.06 0.05 0.04 0.03 0.04 0.04 0.04 0.03 0.04 0.04 0.05 0.07 0.07 0.05 0.06 0.06 0.03 0.02 0.02 0.02 0.03 0.04 0.03 0.03 0.03
0.02 0.02 0.02 0.02 0.02 0.04 0.04 0.04 0.04 0.03 0.01 0.01 0.02 0.02 0.02 0.01 0.03 0.04 0.04 0.04 0.03 0.02 0.02 0.03 0.04 0.04 0.04 0.04 0.06 0.09 0.07 0.05 0.03 0.04 0.03 0.01 0.01 0.01 0.01 0.02 0.02 0.02 0.02
0.03 0.03 0.03 0.03 0.03 0.04 0.04 0.03 0.02 0.02 0.01 0.02 0.02 0.02 0.02 0.02 0.03 0.02 0.02 0.04 0.03 0.03 0.03 0.03 0.03 0.03 0.04 0.05 0.05 0.06 0.06 0.04 0.02 0.01 0.01 0.01 0.01 0.01 0.01 0.01 0.01 0.02 0.02
0.05 0.05 0.05 0.05 0.06 0.07 0.05 0.03 0.02 0.01 0.02 0.02 0.02 0.02 0.02 0.04 0.04 0.02 0.02 0.03 0.03 0.03 0.05 0.04 0.03 0.02 0.03 0.03 0.05 0.04 0.03 0.02 0.01 0.01 0.01 0.01 0.01 0.01 0.01 0.01 0.01 0.01 0.01
0.06 0.04 0.05 0.06 0.07 0.07 0.05 0.03 0.01 0.01 0.01 0.03 0.02 0.02 0.03 0.04 0.04 0.04 0.04 0.04 0.04 0.05 0.06 0.06 0.04 0.03 0.03 0.03 0.04 0.03 0.04 0.03 0.02 0.01 0.01 0.01 0.01 0.02 0.02 0.01 0.01 0.01 0.01
0.05 0.04 0.05 0.07 0.07 0.06 0.07 0.04 0.01 0.01 0.02 0.03 0.03 0.02 0.03 0.03 0.02 0.02 0.03 0.03 0.04 0.05 0.05 0.06 0.06 0.04 0.03 0.03 0.03 0.03 0.04 0.04 0.03 0.02 0.01 0.01 0.01 0.01 0.01 0.01 0.01 0.01 0.01
0.06 0.05 0.06 0.07 0.08 0.06 0.06 0.05 0.02 0.02 0.03 0.04 0.03 0.03 0.03 0.03 0.03 0.02 0.02 0.03 0.04 0.04 0.04 0.06 0.07 0.06 0.04 0.04 0.03 0.03 0.03 0.04 0.02 0.02 0.01 0.01 0.01 0.01 0.01 0.01 0.01 0.01 0.01
0.04 0.06 0.06 0.07 0.10 0.09 0.05 0.04 0.05 0.04 0.04 0.03 0.03 0.03 0.03 0.03 0.03 0.04 0.05 0.05 0.05 0.05 0.05 0.05 0.05 0.06 0.05 0.04 0.04 0.02 0.02 0.04 0.03 0.02 0.01 0.01 0.01 0.01 0.02 0.01 0.01 0.01 0.01
0.05 0.08 0.09 0.08 0.09 0.08 0.04 0.05 0.06 0.04 0.02 0.02 0.02 0.02 0.02 0.02 0.02 0.03 0.04 0.05 0.05 0.05 0.05 0.04 0.04 0.04 0.04 0.03 0.03 0.02 0.01 0.02 0.04 0.03 0.01 0.01 0.01 0.01 0.01 0.01 0.01 0.01 0.02
0.08 0.09 0.10 0.09 0.08 0.07 0.04 0.03 0.03 0.02 0.01 0.01 0.01 0.01 0.01 0.02 0.02 0.02 0.01 0.03 0.04 0.06 0.05 0.03 0.04 0.05 0.04 0.03 0.03 0.02 0.03 0.04 0.05 0.03 0.02 0.02 0.02 0.02 0.02 0.01 0.01 0.01 0.02
0.11 0.10 0.08 0.07 0.07 0.05 0.03 0.02 0.02 0.01 0.01 0.00 0.01 0.01 0.00 0.01 0.02 0.01 0.01 0.02 0.04 0.06 0.09 0.07 0.03 0.03 0.05 0.04 0.03 0.03 0.04 0.04 0.03 0.02 0.03 0.03 0.03 0.02 0.02 0.02 0.02 0.01 0.01
0.10 0.08 0.05 0.03 0.02 0.01 0.01 0.01 0.02 0.01 0.01 0.01 0.01 0.00 0.01 0.00 0.00 0.00 0.01 0.01 0.02 0.03 0.05 0.07 0.05 0.04 0.04 0.04 0.04 0.03 0.03 0.02 0.02 0.02 0.03 0.03 0.02 0.02 0.02 0.01 0.02 0.01 0.01
0.06 0.04 0.02 0.01 0.01 0.00 0.00 0.01 0.01 0.01 0.00 0.00 0.00 0.00 0.00 0.00 0.00 0.00 0.00 0.00 0.00 0.01 0.01 0.02 0.03 0.04 0.04 0.04 0.05 0.04 0.03 0.02 0.02 0.02 0.02 0.02 0.01 0.01 0.01 0.01 0.01 0.01 0.01
0.03 0.01 0.01 0.00 0.00 0.00 0.00 0.00 0.01 0.01 0.00 0.00 0.00 0.01 0.01 0.00 0.00 0.00 0.01 0.01 0.01 0.00 0.01 0.01 0.01 0.02 0.02 0.03 0.03 0.04 0.04 0.03 0.02 0.02 0.02 0.02 0.02 0.01 0.01 0.01 0.01 0.01 0.02
MSLP
1016.73 1016.58 1016.37 1016.11 1015.83 1015.55 1015.29 1015.05 1014.84 1014.65 1014.46 1014.27 1014.07 1013.85 1013.62 1013.39 1013.16 1012.95 1012.77 1012.63 1012.53 1012.47 1012.45 1012.47 1012.52 1012.60 1012.71 1012.85 1013.01 1013.19 1013.41 1013.66 1013.95 1014.29 1014.66 1015.07 1015.49 1015.91 1016.31 1016.68 1017.02 1017.32 1017.59
1016.83 1016.72 1016.55 1016.34 1016.11 1015.86 1015.60 1015.35 1015.11 1014.88 1014.64 1014.41 1014.16 1013.90 1013.61 1013.31 1013.00 1012.69 1012.41 1012.16 1011.98 1011.86 1011.81 1011.83 1011.90 1012.00 1012.13 1012.28 1012.44 1012.61 1012.80 1013.03 1013.31 1013.64 1014.03 1014.46 1014.91 1015.36 1015.79 1016.18 1016.52 1016.82 1017.09
1016.86 1016.79 1016.68 1016.54 1016.37 1016.17 1015.94 1015.69 1015.43 1015.16 1014.89 1014.61 1014.31 1013.98 1013.63 1013.24 1012.83 1012.42 1012.02 1011.67 1011.40 1011.21 1011.11 1011.11 1011.19 1011.31 1011.46 1011.62 1011.78 1011.95 1012.12 1012.34 1012.60 1012.93 1013.32 1013.77 1014.24 1014.72 1015.17 1015.58 1015.93 1016.23 1016.51
1016.85 1016.80 1016.76 1016.69 1016.59 1016.45 1016.26 1016.02 1015.75 1015.45 1015.14 1014.80 1014.45 1014.07 1013.65 1013.19 1012.68 1012.16 1011.66 1011.20 1010.83 1010.56 1010.42 1010.39 1010.45 1010.58 1010.75 1010.91 1011.07 1011.23 1011.39 1011.58 1011.83 1012.15 1012.54 1013.00 1013.49 1013.98 1014.46 1014.88 1015.25 1015.56 1015.86
1016.82 1016.79 1016.78 1016.78 1016.75 1016.66 1016.51 1016.28 1016.01 1015.69 1015.34 1014.97 1014.57 1014.14 1013.67 1013.14 1012.57 1011.96 1011.36 1010.82 1010.35 1010.02 1009.81 1009.74 1009.78 1009.90 1010.06 1010.22 1010.36 1010.50 1010.64 1010.80 1011.03 1011.33 1011.72 1012.17 1012.67 1013.19 1013.67 1014.11 1014.50 1014.84 1015.15
1016.81 1016.77 1016.78 1016.82 1016.84 1016.79 1016.67 1016.46 1016.18 1015.84 1015.47 1015.07 1014.65 1014.20 1013.70 1013.13 1012.52 1011.86 1011.21 1010.59 1010.06 1009.66 1009.39 1009.27 1009.27 1009.35 1009.47 1009.59 1009.71 1009.81 1009.91 1010.05 1010.25 1010.53 1010.90 1011.35 1011.85 1012.36 1012.86 1013.32 1013.72 1014.08 1014.41
1016.85 1016.77 1016.78 1016.83 1016.87 1016.84 1016.73 1016.53 1016.25 1015.91 1015.53 1015.12 1014.70 1014.25 1013.75 1013.20 1012.58 1011.92 1011.24 1010.58 1010.01 1009.55 1009.22 1009.03 1008.96 1008.98 1009.03 1009.10 1009.16 1009.20 1009.26 1009.35 1009.52 1009.77 1010.12 1010.56 1011.05 1011.57 1012.07 1012.53 1012.95 1013.32 1013.67
1016.94 1016.81 1016.79 1016.83 1016.86 1016.83 1016.72 1016.52 1016.23 1015.89 1015.52 1015.13 1014.73 1014.32 1013.86 1013.34 1012.77 1012.13 1011.46 1010.80 1010.20 1009.69 1009.30 1009.03 1008.88 1008.80 1008.77 1008.75 1008.72 1008.70 1008.69 1008.73 1008.86 1009.08 1009.41 1009.83 1010.31 1010.82 1011.32 1011.79 1012.21 1012.59 1012.95
1017.07 1016.89 1016.83 1016.82 1016.83 1016.78 1016.65 1016.44 1016.15 1015.82 1015.46 1015.11 1014.76 1014.39 1014.00 1013.56 1013.04 1012.46 1011.83 1011.19 1010.58 1010.03 1009.58 1009.23 1008.98 1008.79 1008.64 1008.51 1008.39 1008.28 1008.21 1008.19 1008.27 1008.46 1008.76 1009.16 1009.63 1010.13 1010.62 1011.08 1011.50 1011.88 1012.24
1017.21 1016.98 1016.87 1016.82 1016.78 1016.70 1016.55 1016.32 1016.02 1015.69 1015.36 1015.05 1014.75 1014.46 1014.14 1013.78 1013.34 1012.83 1012.25 1011.65 1011.04 1010.47 1009.96 1009.52 1009.16 1008.86 1008.59 1008.35 1008.12 1007.92 1007.78 1007.71 1007.74 1007.90 1008.18 1008.56 1009.00 1009.48 1009.96 1010.41 1010.82 1011.19 1011.54
1017.32 1017.06 1016.91 1016.81 1016.72 1016.60 1016.41 1016.15 1015.85 1015.53 1015.22 1014.94 1014.69 1014.46 1014.21 1013.92 1013.56 1013.12 1012.60 1012.03 1011.44 1010.85 1010.30 1009.79 1009.34 1008.93 1008.55 1008.19 1007.87 1007.59 1007.37 1007.25 1007.25 1007.38 1007.63 1007.98 1008.40 1008.86 1009.31 1009.74 1010.13 1010.49 1010.83
1017.35 1017.08 1016.90 1016.76 1016.63 1016.46 1016.23 1015.95 1015.64 1015.32 1015.02 1014.76 1014.54 1014.34 1014.14 1013.91 1013.61 1013.22 1012.76 1012.23 1011.65 1011.07 1010.49 1009.94 1009.41 1008.92 1008.45 1008.01 1007.61 1007.26 1006.99 1006.82 1006.79 1006.88 1007.11 1007.43 1007.82 1008.25 1008.67 1009.07 1009.43 1009.77 1010.10
1017.28 1017.01 1016.81 1016.64 1016.47 1016.27 1016.01 1015.70 1015.37 1015.04 1014.74 1014.48 1014.26 1014.08 1013.89 1013.68 1013.41 1013.06 1012.64 1012.15 1011.61 1011.05 1010.47 1009.90 1009.35 1008.81 1008.29 1007.80 1007.34 1006.94 1006.64 1006.44 1006.37 1006.44 1006.63 1006.92 1007.28 1007.67 1008.05 1008.41 1008.75 1009.06 1009.37
1017.08 1016.82 1016.62 1016.44 1016.25 1016.01 1015.73 1015.40 1015.05 1014.70 1014.38 1014.10 1013.86 1013.65 1013.44 1013.22 1012.96 1012.63 1012.24 1011.79 1011.29 1010.77 1010.23 1009.69 1009.15 1008.61 1008.08 1007.57 1007.10 1006.68 1006.35 1006.14 1006.05 1006.09 1006.25 1006.50 1006.81 1007.16 1007.50 1007.82 1008.12 1008.40 1008.69
1016.77 1016.53 1016.34 1016.15 1015.94 1015.69 1015.39 1015.05 1014.68 1014.31 1013.95 1013.63 1013.35 1013.09 1012.84 1012.58 1012.30 1011.97 1011.60 1011.19 1010.75 1010.29 1009.82 1009.34 1008.85 1008.36 1007.87 1007.38 1006.92 1006.52 1006.19 1005.97 1005.86 1005.88 1006.01 1006.22 1006.49 1006.78 1007.07 1007.35 1007.62 1007.88 1008.15
1016.38 1016.17 1015.98 1015.79 1015.58 1015.32 1015.02 1014.66 1014.28 1013.89 1013.50 1013.13 1012.79 1012.46 1012.15 1011.84 1011.52 1011.18 1010.82 1010.45 1010.07 1009.69 1009.31 1008.92 1008.52 1008.11 1007.69 1007.26 1006.85 1006.48 1006.17 1005.96 1005.85 1005.85 1005.95 1006.13 1006.35 1006.60 1006.85 1007.09 1007.32 1007.55 1007.81
1015.97 1015.76 1015.58 1015.40 1015.19 1014.93 1014.63 1014.27 1013.89 1013.47 1013.06 1012.64 1012.24 1011.85 1011.47 1011.10 1010.73 1010.36 1010.01 1009.68 1009.36 1009.07 1008.78 1008.50 1008.21 1007.90 1007.57 1007.22 1006.89 1006.57 1006.31 1006.12 1006.03 1006.02 1006.11 1006.26 1006.45 1006.66 1006.87 1007.08 1007.28 1007.49 1007.73
1015.58 1015.38 1015.19 1015.00 1014.79 1014.54 1014.25 1013.90 1013.52 1013.10 1012.67 1012.22 1011.76 1011.31 1010.87 1010.44 1010.02 1009.63 1009.28 1008.97 1008.71 1008.48 1008.29 1008.10 1007.92 1007.71 1007.49 1007.24 1006.99 1006.75 1006.54 1006.40 1006.34 1006.35 1006.44 1006.58 1006.75 1006.94 1007.13 1007.31 1007.49 1007.68 1007.91
1015.25 1015.03 1014.84 1014.64 1014.43 1014.18 1013.89 1013.56 1013.19 1012.78 1012.33 1011.86 1011.38 1010.88 1010.39 1009.91 1009.45 1009.04 1008.68 1008.38 1008.14 1007.97 1007.84 1007.74 1007.64 1007.53 1007.40 1007.25 1007.08 1006.93 1006.80 1006.72 1006.70 1006.75 1006.86 1007.02 1007.20 1007.38 1007.56 1007.73 1007.89 1008.07 1008.29
1015.00 1014.76 1014.54 1014.32 1014.10 1013.85 1013.57 1013.24 1012.88 1012.48 1012.04 1011.57 1011.07 1010.55 1010.03 1009.51 1009.02 1008.58 1008.20 1007.90 1007.67 1007.52 1007.42 1007.37 1007.33 1007.29 1007.24 1007.17 1007.09 1007.02 1006.98 1006.98 1007.03 1007.14 1007.29 1007.48 1007.68 1007.88 1008.07 1008.24 1008.41 1008.58 1008.79
1014.81 1014.54 1014.29 1014.04 1013.79 1013.53 1013.25 1012.93 1012.58 1012.19 1011.77 1011.31 1010.81 1010.29 1009.75 1009.21 1008.70 1008.23 1007.82 1007.50 1007.26 1007.09 1007.00 1006.96 1006.95 1006.95 1006.95 1006.96 1006.96 1006.97 1007.02 1007.10 1007.23 1007.41 1007.63 1007.87 1008.11 1008.34 1008.55 1008.74 1008.91 1009.09 1009.30
1014.66 1014.36 1014.07 1013.78 1013.50 1013.21 1012.91 1012.59 1012.25 1011.87 1011.46 1011.02 1010.54 1010.03 1009.49 1008.95 1008.42 1007.93 1007.50 1007.14 1006.86 1006.67 1006.55 1006.49 1006.48 1006.50 1006.54 1006.59 1006.66 1006.75 1006.88 1007.05 1007.26 1007.52 1007.81 1008.10 1008.39 1008.66 1008.90 1009.11 1009.31 1009.50 1009.71
1014.52 1014.18 1013.85 1013.52 1013.20 1012.87 1012.55 1012.21 1011.86 1011.50 1011.11 1010.68 1010.23 1009.74 1009.22 1008.69 1008.16 1007.65 1007.19 1006.80 1006.47 1006.23 1006.07 1005.98 1005.95 1005.96 1006.01 1006.10 1006.22 1006.38 1006.58 1006.83 1007.12 1007.45 1007.80 1008.15 1008.49 1008.80 1009.07 1009.31 1009.52 1009.73 1009.96
1014.35 1013.97 1013.61 1013.24 1012.87 1012.51 1012.15 1011.79 1011.43 1011.07 1010.69 1010.29 1009.87 1009.41 1008.92 1008.40 1007.88 1007.37 1006.89 1006.46 1006.10 1005.81 1005.60 1005.47 1005.40 1005.40 1005.46 1005.57 1005.72 1005.93 1006.19 1006.50 1006.86 1007.24 1007.63 1008.02 1008.40 1008.73 1009.03 1009.29 1009.53 1009.76 1010.00
1014.13 1013.74 1013.34 1012.93 1012.53 1012.12 1011.73 1011.35 1010.98 1010.61 1010.25 1009.87 1009.48 1009.05 1008.59 1008.11 1007.60 1007.10 1006.61 1006.16 1005.77 1005.44 1005.19 1005.03 1004.94 1004.92 1004.98 1005.10 1005.28 1005.52 1005.82 1006.16 1006.54 1006.95 1007.37 1007.78 1008.16 1008.51 1008.82 1009.10 1009.35 1009.60 1009.87
1013.88 1013.47 1013.05 1012.62 1012.18 1011.75 1011.33 1010.92 1010.54 1010.18 1009.83 1009.47 1009.10 1008.71 1008.28 1007.83 1007.35 1006.86 1006.38 1005.93 1005.53 1005.18 1004.91 1004.72 1004.62 1004.59 1004.64 1004.77 1004.96 1005.22 1005.53 1005.88 1006.27 1006.67 1007.08 1007.48 1007.85 1008.19 1008.49 1008.77 1009.04 1009.31 1009.60
Thickness
5713 5711 5710 5709 5709 5707 5706 5705 5705 5705 5704 5704 5703 5702 5701 5700 5700 5700 5700 5701 5700 5700 5700 5700 5701 5702 5701 5701 5701 5701 5702 5702 5702 5703 5702 5702 5702 5701 5701 5700 5700 5699 5699
5708 5706 5704 5704 5703 5701 5700 5699 5699 5699 5698 5698 5697 5696 5696 5695 5694 5694 5694 5695 5695 5695 5694 5695 5696 5697 5697 5697 5696 5697 5698 5699 5699 5700 5700 5700 5700 5699 5699 5698 5698 5697 5697
5703 5701 5699 5697 5696 5695 5694 5693 5692 5692 5691 5690 5689 5690 5690 5689 5688 5688 5688 5688 5689 5689 5690 5690 5691 5691 5692 5692 5692 5693 5694 5695 5695 5697 5697 5697 5697 5697 5697 5696 5695 5695 5695
5698 5695 5692 5691 5689 5688 5687 5685 5684 5683 5682 5681 5681 5682 5682 5681 5681 5682 5681 5681 5682 5683 5684 5685 5685 5686 5687 5688 5688 5689 5690 5691 5692 5693 5694 5694 5694 5694 5694 5693 5692 5692 5692
5691 5688 5686 5685 5683 5681 5679 5678 5676 5675 5673 5673 5673 5674 5673 5673 5674 5674 5674 5674 5675 5676 5677 5678 5679 5679 5681 5682 5683 5684 5685 5686 5687 5688 5689 5690 5690 5690 5690 5690 5690 5689 5689
5684 5681 5679 5677 5676 5673 5671 5670 5668 5667 5666 5665 5666 5665 5664 5664 5665 5666 5666 5667 5668 5669 5669 5670 5671 5672 5674 5675 5677 5679 5680 5681 5683 5683 5684 5685 5685 5686 5686 5686 5686 5686 5686
5677 5675 5672 5670 5668 5665 5663 5662 5660 5658 5656 5656 5654 5653 5654 5656 5657 5657 5658 5659 5660 5661 5661 5662 5663 5665 5666 5668 5670 5672 5674 5676 5677 5677 5679 5680 5680 5681 5682 5682 5682 5682 5682
5669 5667 5664 5662 5660 5657 5654 5653 5651 5648 5647 5647 5643 5640 5639 5641 5645 5649 5648 5649 5651 5652 5653 5654 5655 5657 5658 5660 5662 5665 5667 5668 5670 5671 5672 5674 5674 5675 5676 5677 5678 5679 5678
5662 5659 5657 5654 5652 5649 5646 5644 5643 5640 5638 5637 5636 5633 5629 5628 5631 5636 5638 5640 5641 5643 5645 5646 5648 5649 5651 5652 5655 5657 5659 5660 5662 5664 5666 5667 5668 5669 5670 5672 5673 5674 5675
5654 5652 5649 5647 5644 5642 5639 5637 5636 5633 5630 5628 5627 5627 5625 5624 5622 5624 5627 5630 5633 5634 5636 5638 5640 5641 5643 5645 5647 5649 5651 5653 5655 5656 5658 5660 5661 5662 5664 5665 5667 5669 5670
5647 5645 5642 5640 5637 5635 5632 5631 5629 5627 5624 5622 5620 5620 5619 5618 5618 5616 5617 5620 5623 5626 5628 5630 5632 5633 5635 5637 5639 5641 5643 5646 5647 5649 5651 5653 5654 5655 5657 5659 5661 5663 5664
5640 5639 5636 5633 5631 5628 5627 5625 5623 5621 5619 5617 5616 5615 5613 5612 5612 5611 5611 5612 5614 5617 5621 5623 5624 5626 5628 5630 5631 5634 5636 5638 5640 5642 5644 5646 5648 5649 5651 5652 5654 5656 5658
5634 5632 5630 5628 5625 5623 5622 5620 5618 5616 5615 5613 5612 5610 5610 5609 5609 5608 5607 5606 5607 5610 5613 5616 5618 5619 5621 5623 5625 5627 5629 5631 5633 5635 5637 5639 5641 5642 5644 5646 5648 5650 5651
5629 5628 5625 5622 5620 5618 5617 5615 5613 5612 5611 5609 5609 5607 5606 5606 5606 5605 5604 5602 5602 5603 5606 5608 5611 5613 5614 5616 5618 5620 5622 5624 5626 5628 5630 5632 5634 5636 5637 5639 5641 5643 5645
5624 5622 5620 5618 5615 5613 5612 5610 5608 5607 5607 5606 5605 5604 5603 5603 5603 5603 5603 5602 5599 5598 5599 5602 5603 5607 5608 5609 5611 5613 5615 5617 5619 5621 5623 5625 5627 5629 5630 5632 5635 5637 5638
5619 5616 5614 5613 5610 5609 5607 5605 5603 5603 5602 5602 5601 5600 5600 5601 5601 5601 5601 5599 5598 5596 5595 5597 5599 5601 5602 5603 5605 5607 5609 5611 5613 5615 5617 5619 5620 5622 5624 5626 5628 5631 5632
5615 5612 5610 5608 5606 5604 5602 5600 5599 5599 5598 5597 5597 5597 5597 5598 5598 5598 5598 5597 5596 5594 5593 5593 5595 5596 5597 5598 5600 5601 5603 5606 5608 5610 5612 5613 5614 5616 5618 5620 5622 5624 5626
5611 5609 5607 5604 5603 5601 5599 5597 5596 5596 5594 5594 5594 5594 5595 5596 5595 5595 5594 5594 5593 5592 5591 5590 5591 5592 5593 5594 5595 5596 5599 5601 5603 5605 5606 5608 5609 5611 5612 5614 5616 5618 5619
5608 5606 5604 5601 5600 5598 5596 5595 5593 5593 5592 5591 5591 5591 5592 5592 5591 5591 5591 5591 5590 5591 5589 5587 5587 5588 5589 5590 5590 5592 5594 5596 5598 5600 5601 5603 5604 5605 5607 5608 5610 5611 5613
5605 5603 5601 5599 5598 5596 5595 5593 5591 5590 5590 5589 5589 5589 5589 5589 5589 5589 5589 5588 5588 5587 5586 5585 5584 5585 5585 5587 5587 5587 5588 5591 5593 5596 5597 5599 5600 5601 5602 5603 5604 5605 5606
5603 5600 5598 5596 5595 5594 5592 5590 5589 5588 5587 5586 5587 5587 5587 5588 5588 5588 5587 5586 5585 5584 5582 5581 5581 5581 5581 5582 5583 5584 5585 5586 5588 5591 5592 5594 5595 5596 5597 5598 5599 5600 5601
5600 5598 5595 5594 5592 5592 5590 5589 5587 5586 5584 5584 5584 5584 5585 5586 5586 5586 5586 5586 5585 5583 5581 5579 5579 5579 5580 5580 5581 5581 5581 5582 5583 5587 5587 5589 5591 5591 5593 5594 5596 5597 5597
5599 5596 5593 5592 5590 5589 5588 5587 5586 5583 5582 5581 5581 5581 5582 5583 5583 5583 5583 5583 5583 5583 5582 5579 5579 5579 5580 5580 5579 5579 5578 5579 5580 5584 5583 5585 5587 5588 5591 5592 5593 5593 5594
5597 5594 5592 5591 5589 5588 5587 5585 5584 5582 5580 5579 5579 5578 5578 5578 5580 5579 5579 5579 5580 5581 5581 5580 5580 5580 5581 5581 5580 5579 5578 5578 5580 5581 5582 5581 5584 5585 5589 5590 5591 5591 5591
5596 5593 5591 5589 5587 5586 5586 5584 5582 5579 5578 5577 5578 5578 5577 5577 5578 5578 5576 5576 5577 5578 5581 5581 5581 5581 5581 5580 5579 5577 5576 5576 5576 5578 5580 5579 5581 5582 5585 5587 5588 5588 5588
5595 5593 5591 5589 5587 5585 5585 5583 5582 5578 5576 5576 5576 5577 5577 5576 5577 5576 5574 5573 5574 5576 5577 5578 5579 5580 5580 5580 5580 5578 5577 5575 5574 5575 5578 5577 5578 5578 5580 5583 5584 5585 5584